When you browse on this site, cookies collect data to enhance your experience and personalize the content and advertising you see.
Visit our Privacy Policy to learn more. By continuing to use the site, you agree to this use of cookies and data.
  • In Portugal
  • List of Countries
  • For 7 days
  • Water Temperature
  • Satellite Maps
  • Weather Map
  • Weather Widgets
  • user-avatar
    Login

    Hourly Weather Maloe Maksimkino

    Today, 26 April, Friday

    Time Temperature Precipitation Wind Pressure Humidity
    00:00 +10°C° 0 mm 2 mps 756 mmHg 80%
    01:00 +9°C° 0 mm 2 mps 756 mmHg 82%
    02:00 +9°C° 0 mm 2 mps 757 mmHg 83%
    03:00 +8°C° 0 mm 2 mps 756 mmHg 84%
    04:00 +8°C° 0 mm 2 mps 757 mmHg 80%
    05:00 +8°C° 0 mm 2 mps 757 mmHg 77%
    06:00 +8°C° 0 mm 2 mps 757 mmHg 74%
    07:00 +9°C° 0 mm 2 mps 757 mmHg 65%
    08:00 +11°C° 0 mm 3 mps 757 mmHg 56%
    09:00 +12°C° 0 mm 3 mps 757 mmHg 48%
    10:00 +13°C° 0 mm 3 mps 757 mmHg 45%
    11:00 +13°C° 0 mm 3 mps 757 mmHg 42%
    12:00 +14°C° 0 mm 3 mps 757 mmHg 39%
    13:00 +14°C° 0 mm 3 mps 757 mmHg 38%
    14:00 +15°C° 0 mm 4 mps 757 mmHg 38%
    15:00 +15°C° 0 mm 4 mps 757 mmHg 37%
    16:00 +16°C° 0 mm 3 mps 757 mmHg 41%
    17:00 +14°C° 0 mm 3 mps 757 mmHg 45%
    18:00 +15°C° 0 mm 2 mps 757 mmHg 49%
    19:00 +13°C° 0 mm 2 mps 757 mmHg 53%
    20:00 +12°C° 0 mm 2 mps 757 mmHg 57%
    21:00 +10°C° 0 mm 2 mps 757 mmHg 61%
    22:00 +10°C° 0 mm 1 mps 757 mmHg 64%
    23:00 +10°C° 0 mm 1 mps 757 mmHg 67%

    Tomorrow, 27 April, Saturday

    Time Temperature Precipitation Wind Pressure Humidity
    00:00 +9°C° 0 mm 1 mps 757 mmHg 69%
    01:00 +9°C° 0 mm 1 mps 757 mmHg 70%
    02:00 +7°C° 0 mm 0 mps 757 mmHg 70%
    03:00 +6°C° 0 mm 0 mps 757 mmHg 71%
    04:00 +7°C° 0 mm 0 mps 757 mmHg 70%
    05:00 +9°C° 0 mm 1 mps 757 mmHg 69%
    06:00 +9°C° 0 mm 1 mps 757 mmHg 67%
    07:00 +11°C° 0 mm 1 mps 756 mmHg 60%
    08:00 +13°C° 0 mm 2 mps 756 mmHg 53%
    09:00 +15°C° 0 mm 2 mps 755 mmHg 46%
    10:00 +16°C° 0 mm 3 mps 755 mmHg 42%
    11:00 +17°C° 0 mm 4 mps 754 mmHg 38%
    12:00 +18°C° 0 mm 4 mps 754 mmHg 34%
    13:00 +19°C° 0 mm 4 mps 753 mmHg 33%
    14:00 +19°C° 0 mm 5 mps 753 mmHg 32%
    15:00 +20°C° 0 mm 5 mps 752 mmHg 32%
    16:00 +19°C° 0 mm 4 mps 752 mmHg 36%
    17:00 +18°C° 0 mm 3 mps 751 mmHg 40%
    18:00 +17°C° 0 mm 2 mps 751 mmHg 44%
    19:00 +16°C° 0 mm 2 mps 750 mmHg 47%
    20:00 +15°C° 0 mm 2 mps 750 mmHg 50%
    21:00 +14°C° 0 mm 2 mps 749 mmHg 53%
    22:00 +12°C° 0 mm 3 mps 749 mmHg 58%
    23:00 +12°C° 0 mm 3 mps 748 mmHg 64%

    Day after tomorrow, 28 April, Sunday

    Time Temperature Precipitation Wind Pressure Humidity
    00:00 +12°C° 0 mm 4 mps 748 mmHg 69%
    01:00 +12°C° 0 mm 4 mps 747 mmHg 70%
    02:00 +11°C° 0 mm 4 mps 747 mmHg 72%
    03:00 +11°C° 0 mm 4 mps 746 mmHg 74%
    04:00 +11°C° 0.3 mm 4 mps 746 mmHg 74%
    05:00 +12°C° 0.3 mm 4 mps 746 mmHg 74%
    06:00 +12°C° 0.3 mm 4 mps 746 mmHg 74%
    07:00 +12°C° 0.1 mm 5 mps 746 mmHg 75%
    08:00 +12°C° 0.1 mm 5 mps 746 mmHg 75%
    09:00 +13°C° 0.1 mm 5 mps 746 mmHg 76%
    10:00 +9°C° 0.7 mm 5 mps 747 mmHg 77%
    11:00 +7°C° 0.7 mm 6 mps 747 mmHg 79%
    12:00 +3°C° 0.7 mm 6 mps 748 mmHg 80%
    13:00 +4°C° 0.6 mm 6 mps 749 mmHg 75%
    14:00 +5°C° 0.6 mm 5 mps 749 mmHg 71%
    15:00 +6°C° 0.6 mm 5 mps 750 mmHg 67%
    16:00 +6°C° 0 mm 5 mps 751 mmHg 64%
    17:00 +5°C° 0 mm 5 mps 751 mmHg 61%
    18:00 +5°C° 0 mm 5 mps 751 mmHg 58%
    19:00 +4°C° 0 mm 4 mps 752 mmHg 62%
    20:00 +3°C° 0 mm 3 mps 753 mmHg 66%
    21:00 +2°C° 0 mm 3 mps 753 mmHg 70%
    22:00 +2°C° 0 mm 3 mps 754 mmHg 70%
    23:00 +1°C° 0 mm 3 mps 754 mmHg 70%

    29 April, Monday

    Time Temperature Precipitation Wind Pressure Humidity
    00:00 0°C° 0 mm 4 mps 754 mmHg 70%
    01:00 -1°C° 0 mm 4 mps 754 mmHg 70%
    02:00 -2°C° 0 mm 4 mps 755 mmHg 70%
    03:00 -2°C° 0 mm 4 mps 755 mmHg 70%
    04:00 -2°C° 0 mm 4 mps 755 mmHg 70%
    05:00 -2°C° 0 mm 4 mps 756 mmHg 70%
    06:00 -2°C° 0 mm 5 mps 756 mmHg 71%
    07:00 0°C° 0 mm 5 mps 756 mmHg 63%
    08:00 +1°C° 0 mm 6 mps 756 mmHg 55%
    09:00 +2°C° 0 mm 6 mps 757 mmHg 48%
    10:00 +2°C° 0 mm 6 mps 757 mmHg 45%
    11:00 +3°C° 0 mm 6 mps 757 mmHg 41%
    12:00 +3°C° 0 mm 5 mps 757 mmHg 38%
    13:00 +3°C° 0 mm 5 mps 757 mmHg 38%
    14:00 +3°C° 0 mm 5 mps 757 mmHg 37%
    15:00 +3°C° 0 mm 5 mps 757 mmHg 37%
    16:00 +3°C° 0 mm 5 mps 757 mmHg 39%
    17:00 +3°C° 0 mm 4 mps 757 mmHg 40%
    18:00 +3°C° 0 mm 4 mps 758 mmHg 42%
    19:00 +1°C° 0 mm 4 mps 758 mmHg 46%
    20:00 +1°C° 0 mm 3 mps 758 mmHg 51%
    21:00 -1°C° 0 mm 2 mps 759 mmHg 55%
    22:00 -1°C° 0 mm 2 mps 759 mmHg 57%
    23:00 -2°C° 0 mm 2 mps 759 mmHg 58%

    30 April, Tuesday

    Time Temperature Precipitation Wind Pressure Humidity
    00:00 -2°C° 0 mm 2 mps 759 mmHg 60%
    01:00 -2°C° 0 mm 2 mps 759 mmHg 59%
    02:00 -2°C° 0 mm 2 mps 759 mmHg 59%
    03:00 -2°C° 0 mm 2 mps 759 mmHg 59%
    04:00 -2°C° 0 mm 2 mps 759 mmHg 55%
    05:00 +1°C° 0 mm 1 mps 759 mmHg 51%
    06:00 +2°C° 0 mm 1 mps 759 mmHg 47%
    07:00 +2°C° 0 mm 2 mps 759 mmHg 42%
    08:00 +3°C° 0 mm 2 mps 759 mmHg 37%
    09:00 +5°C° 0 mm 2 mps 759 mmHg 32%
    10:00 +5°C° 0 mm 2 mps 759 mmHg 31%
    11:00 +6°C° 0 mm 2 mps 759 mmHg 30%
    12:00 +7°C° 0 mm 2 mps 758 mmHg 28%
    13:00 +7°C° 0 mm 2 mps 758 mmHg 28%
    14:00 +8°C° 0 mm 2 mps 758 mmHg 29%
    15:00 +8°C° 0 mm 3 mps 757 mmHg 29%
    16:00 +7°C° 0 mm 2 mps 757 mmHg 32%
    17:00 +7°C° 0 mm 2 mps 757 mmHg 36%
    18:00 +6°C° 0 mm 2 mps 756 mmHg 40%
    19:00 +6°C° 0 mm 1 mps 757 mmHg 42%
    20:00 +5°C° 0 mm 1 mps 757 mmHg 44%
    21:00 +3°C° 0 mm 0 mps 757 mmHg 46%
    22:00 +3°C° 0 mm 1 mps 757 mmHg 47%
    23:00 +3°C° 0 mm 1 mps 757 mmHg 48%

    1 May, Wednesday

    Time Temperature Precipitation Wind Pressure Humidity
    00:00 +3°C° 0 mm 1 mps 757 mmHg 49%
    01:00 +2°C° 0 mm 1 mps 757 mmHg 49%
    02:00 +2°C° 0 mm 1 mps 756 mmHg 49%
    03:00 +2°C° 0 mm 1 mps 756 mmHg 50%
    04:00 +2°C° 0 mm 1 mps 756 mmHg 48%
    05:00 +3°C° 0 mm 1 mps 756 mmHg 46%
    06:00 +4°C° 0 mm 1 mps 756 mmHg 44%
    07:00 +6°C° 0 mm 1 mps 756 mmHg 41%
    08:00 +7°C° 0 mm 2 mps 756 mmHg 37%
    09:00 +8°C° 0 mm 2 mps 756 mmHg 33%
    10:00 +9°C° 0 mm 2 mps 755 mmHg 32%
    11:00 +10°C° 0 mm 2 mps 755 mmHg 31%
    12:00 +12°C° 0 mm 2 mps 755 mmHg 29%
    13:00 +12°C° 0 mm 2 mps 754 mmHg 29%
    14:00 +12°C° 0 mm 2 mps 754 mmHg 29%
    15:00 +12°C° 0 mm 1 mps 754 mmHg 29%
    16:00 +12°C° 0 mm 1 mps 753 mmHg 32%
    17:00 +11°C° 0 mm 1 mps 753 mmHg 35%
    18:00 +11°C° 0 mm 1 mps 753 mmHg 39%
    19:00 +10°C° 0 mm 1 mps 753 mmHg 40%
    20:00 +8°C° 0 mm 1 mps 753 mmHg 42%
    21:00 +7°C° 0 mm 1 mps 754 mmHg 44%
    22:00 +7°C° 0 mm 1 mps 754 mmHg 45%
    23:00 +6°C° 0 mm 1 mps 754 mmHg 47%
    Show more